Terminal Aerodrome Forecast
Issued by NWS Milwaukee/Sullivan, WI

Home | Current Version | Previous Version | Text Only | Print | Product List | Glossary On
Versions: 1 2 3 4 5 6 7 8 9 10 11 12 13 14 15 16 17 18 19 20 21 22 23 24 25 26 27 28 29 30 31 32 33 34 35 36 37 38 39 40 41 42 43 44 45 46 47 48 49 50
000
FTUS43 KMKX 260401 AAA
TAFMKE
TAF AMD
KMKE 260401Z 2604/2706 20010KT P6SM SCT180 OVC220 WS014/21039KT
     FM261000 21010KT P6SM BKN150 OVC200
     FM261400 22009KT P6SM BKN100
     FM270000 20006KT P6SM OVC015=

USA.gov is the U.S. government's official web portal to all federal, state and local government web resources and services.